This is the latest recevied weather packets stored in our database for station/object N5CSU. If no packets are shown the sender has not sent any weather packets the latest 10 day(s).
| Time | Temp. | Humidity | Pressure | Rain* | Wind** | Luminosity | Snow |
|---|---|---|---|---|---|---|---|
| 1788136700 | 95° F | 40% | 759.5 mmHg | 0 in | - | 2 W/m² | - |
| 1788136396 | 95° F | 40% | 759.5 mmHg | 0 in | - | 2 W/m² | - |
| 1788136095 | 95° F | 40% | 759.4 mmHg | 0 in | - | 2 W/m² | - |
| 1788135794 | 95° F | 40% | 759.7 mmHg | 0 in | - | 3 W/m² | - |
| 1788135490 | 95° F | 40% | 759.7 mmHg | 0 in | - | 3 W/m² | - |
| 1788135185 | 96° F | 40% | 759.7 mmHg | 0 in | - | 4 W/m² | - |
| 1788134883 | 96° F | 40% | 759.7 mmHg | 0 in | - | 4 W/m² | - |
| 1788134582 | 96° F | 40% | 759.7 mmHg | 0 in | - | 4 W/m² | - |
| 1788134280 | 97° F | 40% | 759.7 mmHg | 0 in | - | 5 W/m² | - |
| 1788133975 | 97° F | 39% | 759.7 mmHg | 0 in | - | 5 W/m² | - |
| 1788133671 | 97° F | 39% | 759.7 mmHg | 0 in | - | 5 W/m² | - |
| 1788133367 | 97° F | 39% | 759.6 mmHg | 0 in | - | 6 W/m² | - |
| 1788133062 | 97° F | 39% | 759.7 mmHg | 0 in | - | 6 W/m² | - |
| 1788132758 | 97° F | 39% | 759.7 mmHg | 0 in | - | 7 W/m² | - |
| 1788132453 | 98° F | 39% | 759.9 mmHg | 0 in | - | 7 W/m² | - |
| 1788132149 | 98° F | 38% | 759.7 mmHg | 0 in | - | 6 W/m² | - |
| 1788131845 | 98° F | 37% | 759.7 mmHg | 0 in | - | 8 W/m² | - |
| 1788131544 | 98° F | 36% | 759.8 mmHg | 0 in | - | 10 W/m² | - |
| 1788131240 | 98° F | 37% | 759.7 mmHg | 0 in | - | 9 W/m² | - |
| 1788130935 | 99° F | 37% | 759.8 mmHg | 0 in | - | 15 W/m² | - |
| 1788130629 | 99° F | 36% | 759.8 mmHg | 0 in | - | 10 W/m² | - |
| 1788130329 | 99° F | 36% | 760 mmHg | 0 in | - | 13 W/m² | - |
| 1788130028 | 99° F | 36% | 759.9 mmHg | 0 in | - | 17 W/m² | - |
| 1788129724 | 99° F | 36% | 759.9 mmHg | 0 in | - | 15 W/m² | - |
| 1788129421 | 100° F | 35% | 759.9 mmHg | 0 in | - | 15 W/m² | - |
* Rain latest hour (hover to see other rain measurements)
** Current wind speed in m/s (hover to see current wind gust speed)